OBJECT H

Satellite information

Favourite Embed

Satellite Type and Status

UNKNOWNIN ORBIT

Key statistics

Satellite OBJECT H at a glance.

Uptime

1336

Days in orbit

Revolutions

≈ 15.2

Per day

Orbit

LEO

Low Earth Orbit

Inclination

63.6

Latest

Satellite identification and parameters

Extended collection of information and parameters for OBJECT H.

Object identification

Identified? True

Debris? False

Object name: OBJECT H

International designator: 2022-023H

Object number (NORAD): 51953

Object ID (CCSDS): 51953

Country: PEOPLES REPUBLIC OF CHINA (PRC)

Current information (Y/N): Y

RCS size: LARGE

Orbital parameters

Period: 94.804 minutes

Inclination: 63.6314 deg

SMA: 6887.226 km

Apoapsis: 569.622 km

Periapsis: 448.559 km

RAAN: 77.3473 deg

Eccentricy: 0.00878896

Argument of periapsis: 301.6629 deg

Mean anomaly: 57.5935 deg

Mean motion: 15.18924904 rev/day

Mean motion (dot): 0.0001156 rev/day2

B* drag term: 0.00050667854 1/REarth

Two-line elements (TLE)

Creation date: Oct. 31, 2025, 3 a.m.

Reference frame: TEME

Reference center: EARTH

Epoch: Oct. 30, 2025, 10:13 p.m. UTC

TLE line 0: 0 OBJECT H

TLE line 1: 1 51953U 22023H 25303.92615461 .00011560 00000-0 50668-3 0 9990

TLE line 2: 2 51953 63.6314 77.3473 0087890 301.6629 57.5935 15.18924904201378

Live tracking on map

Real-time ground track for satellite OBJECT H.

In-orbit conjunctions

There are no conjunctions computed for OBJECT H, at the moment. Check back to stay up to date, as we update our databases every day.

Go to all conjunctions

Associated space launch

The first flight dedicated to the launch of the Internet constellation of GalaxySpace, a private company, planning the total deployment of more than 1000 satellites in earth orbit. The satellites broadcast in 5G, with a capacity of 10 Gb.

OBJECT H was lifted into orbit during the mission ‘Long March 2C | Yinhe-1 (x6)’, on board a Long March 2 space rocket.

The launch took place on March 5, 2022, 6:01 a.m. from Launch Complex 3 (LC-3/LA-1).

For more information about the launch, click the button.

Launch to space Long March 2C | Yinhe-1 (x6)
Long March 2C | Yinhe-1 (x6)

Agency: N/A

Status: Launch Successful

Launch date: March 5, 2022, 6:01 a.m. UTC

Rocket: Long March 2

Launch pad: Launch Complex 3 (LC-3/LA-1)

Location: Xichang Satellite Launch Center, People's Republic of China

...

Latest news about this satellite

News about space launch
Long March rocket deploys six Chinese internet satellites

Six demonstration satellites for a future Chinese broadband internet mega-constellation launched March 5 on a Long March 2C rocket.

News about space launch
China launches test satellites for broadband constellation

China  launched a set of commercial satellites Saturday for testing broadband services, on-orbit networking and integrating communications and remote sensing technologies.


Newsletter sign-up

Weekly statistics, charts and insights to help you stay on top of the space industry.